Starlink 32128

operational
NORAD ID: 60272 Int'l Des: 2024-131 Owner: SPXS Country: US Constellation: starlink
LEOCIRCULAR

Starlink 32128について

説明を読み込み中...

リアルタイム位置

3D地球を読み込み中...

次回通過

高度履歴

Altitude vs Time

uPlot chart will show altitude changes over time

軌道要素

1 60272U 24131T 25353.23708338 -.00010616 00000-0 -34635-3 0 9990
2 60272 53.1597 65.9349 0001263 64.5738 295.5394 15.30242399 79405
Epoch: Dec 19, 2025 • Age: 5 hours

現在のステータス

高度 479.8 km
速度 7.63 km/s
衛星直下点 47.43°N, 60.85°W
打ち上げ日 Jul 27, 2024
運用期間 1.3 years
タイプ internet

技術仕様

分類 Payload
質量 730.00 kg
乾燥質量 700.00 kg
総質量 730.00 kg
長さ 0.30 m
直径 4.10 m
スパン 29.00 m
形状 Box + pan
製造者 SPXS
バスタイプ Starlink V2M
フェーズステータス In Orbit
所有者/国 SPXS/US

大規模コンステレーション

Loading constellations...